CZ-4 DEB, 28070

Orbit data source: Space-Track

CZ-4 DEB, 28070 is space debris in SSO originally from a launch on Thu, 14 Oct 1999 UTC launched from the Taiyaun Space Center, China (TSC). Debris objects in space refer to the collection of defunct objects orbiting the Earth. Examples of debris include non-operational satellites, rocket bodies, and fragments generated from explosions, collisions, or faulty payload assembly.

Loading next visibility...
Identifier
28070, 1999-057NA
Orbit
SSO
Country
Flag of CNCN / PRC
Related business
Manufacturer
Unknown
Mission
Spacecraft
Bus & Motor
Unknown
Mass
Unknown
Launch date (UTC)
1999-10-14 (27 years ago)
Launch vehicle
Unknown
Launch site
Taiyaun Space Center, China (TSC)
Object type
Payload
Rocket body
Debris
Shape & HBR
Unknown shape, 0.1 m
Radar Cross Section
Small (<0.1 m²)

Expand to show TLE details & history
Last TLE update: 1 day ago

TLE from 1 day ago
0 CZ-4 DEB
1 28070U 99057NA  26264.42491517  .00000925  00000-0  19583-3 0  9995
2 28070  98.4297 324.7446 0059251 359.0380   1.0696 14.60675945269015
Epoch: 2026-09-21T10:11Z
TLE epoch observation values (Epoch: 2026-09-21T10:11:52.670Z)
Latitude
-0.00006°
Longitude
171.47022°
Altitude
652.085 km
Speed
7.554 km/s
True Right ascension
21h 38m 58s
True Declination
0° 00' 00"
Sunlit
Object was in full shadow at epoch
Visualization orbit readout
Latitude
Unknown
Longitude
Unknown
Altitude
Unknown
Speed
Unknown
Apparent Right ascension
Unknown
Apparent Declination
Unknown
Sunlit
N/A
Visualization observer readout
Local Sidereal Time
14:52:40
Azimuth
Unknown
Elevation
Unknown
Doppler factor
Unknown
Orbital elements
Apogee altitude
729.951 km
Perigee altitude
646.215 km
Semi-major axis
7,066.22 km
Eccentricity
0.00593
Inclination
98.4297°
RAAN
324.7446°
Arg. of periapsis
359.038°
True anomaly
1.08237°
Mean anomaly
1.0696°
Eccentric anomaly
1.07597°
Mean motion
3.65395 °/min
Orbital period
98.52 mins
BSTAR
0.00019583
Loading maneuver chart data...
Computing Atmospheric mass density...

Documentation

Showing up to 5 results
|